Regional Weather Roundup
Issued by NWS

Home | Current Version | Previous Version | Graphics & Text | Print | Product List | Glossary On
Versions: 1 2 3 4 5 6 7 8 9 10 11 12 13 14 15 16 17 18 19 20 21 22 23 24 25 26 27 28 29 30 31 32 33 34 35 36 37 38 39 40 41 42 43 44 45 46 47 48 49 50
082
ASUS43 KMKX 261700
RWRWI

WISCONSIN REGIONAL WEATHER ROUNDUP
NATIONAL WEATHER SERVICE MILWAUKEE/SULLIVAN WI
1200 PM CDT FRI MAY 26 2017

NOTE: "FAIR" INDICATES FEW OR NO CLOUDS BELOW 12,000 FEET WITH NO
SIGNIFICANT WEATHER AND/OR OBSTRUCTIONS TO VISIBILITY.

WIZ001-002-006>008-014>016-023>028-261800-
NORTHWEST WISCONSIN

CITY           SKY/WX    TMP DP  RH WIND       PRES   REMARKS
SUPERIOR ARPT  NOT AVBL
ASHLAND        CLOUDY    54  50  86 N7        29.76S
HAYWARD        CLOUDY    68  52  56 S8        29.76R
SIREN          CLOUDY    68  54  62 S7        29.74F
CUMBERLAND     CLOUDY    63  54  72 S7        29.76S
RICE LAKE      CLOUDY    68  53  57 S14       29.77S
CHETEK         CLOUDY    69  56  62 S7G22     29.77S
LADYSMITH      CLOUDY    68  55  62 S9        29.79F
EAU CLAIRE     NOT AVBL
MENOMONIE      CLOUDY    70  55  57 S7        29.76F
NEW RICHMOND   CLOUDY    65  54  66 S7        29.76R
OSCEOLA        CLOUDY    66  55  66 S12       29.78R
$$

WIZ003>005-009-010-017-018-261800-
NORTH CENTRAL WISCONSIN

CITY           SKY/WX    TMP DP  RH WIND       PRES   REMARKS
MANITOWISH WTR CLOUDY    63  54  73 S7        29.81R
ARBOR VITAE    CLOUDY    64  53  65 S10       29.81S
WOODRUFF       CLOUDY    64  53  65 S10       29.81S
RHINELANDER    CLOUDY    67  54  63 S7        29.83S
EAGLE RIVER    CLOUDY    64  51  62 S3        29.82S
LAND O LAKES   CLOUDY    68  50  51 S7        29.83R
PHILLIPS       CLOUDY    67  53  61 S9        29.79S
TOMAHAWK       CLOUDY    67  55  66 SE5       29.82S
MEDFORD        CLOUDY    66  54  66 S10G17    29.81S
MERRILL        CLOUDY    67  55  66 S8        29.82S
$$

WIZ029-030-035-036-043>047-261800-
CENTRAL WISCONSIN

CITY           SKY/WX    TMP DP  RH WIND       PRES   REMARKS
WAUSAU         CLOUDY    66  55  67 S8        29.81R
MOSINEE        PTSUNNY   64  57  77 SE8       29.83S
MARSHFIELD     CLOUDY    69  56  62 S10       29.80S
STEVENS POINT  CLOUDY    64  56  74 SE8       29.83S
WAUPACA        CLOUDY    69  56  63 E6        29.83S
WAUTOMA        CLOUDY    70  56  61 S8        29.82S
WISC RAPIDS    PTSUNNY   71  56  58 S8        29.82S
CAMP DOUGLAS   NOT AVBL
$$

WIZ011>013-019>022-031-037>040-048>050-261800-
NORTHEAST WISCONSIN

CITY           SKY/WX    TMP DP  RH WIND       PRES   REMARKS
ANTIGO         CLOUDY    66  57  71 S7        29.83F
SHAWANO        CLOUDY    71  57  62 SE5       29.84S
OCONTO         PTSUNNY   63  54  70 S6        29.84S
STURGEON BAY   MOSUNNY   64  52  64 E9        29.86R
GREEN BAY      MOSUNNY   68  58  70 SE5       29.83F
MANITOWOC      NOT AVBL
APPLETON       PTSUNNY   64  50  59 E8        29.83S
CLINTONVILLE   CLOUDY    68  55  64 SE7       29.83F
OSHKOSH        MOSUNNY   65  55  70 E8        29.82F
$$

WIZ032>034-041-042-053>061-261800-
SOUTHWEST WISCONSIN

CITY           SKY/WX    TMP DP  RH WIND       PRES   REMARKS
LA CROSSE      PTSUNNY   72  56  57 S13       29.78S
SPARTA         CLOUDY    70  55  58 SE9       29.80R
VIROQUA        CLOUDY    65  55  68 SW6       29.81R
BOSCOBEL       CLOUDY    67  57  70 CALM      29.80R
PRAIRIE DU CHI CLOUDY    64  55  71 E3        29.79R
PLATTEVILLE    CLOUDY    65  60  84 E12       29.79F
$$

WIZ056-057-062-063-064-067-068-261800-
SOUTH CENTRAL WISCONSIN

CITY           SKY/WX    TMP DP  RH WIND       PRES   REMARKS
REEDSBURG      CLOUDY    69  56  63 S7        29.80S
BARABOO/DELLS  CLOUDY    68  55  62 SE8       29.81R
LONE ROCK      NOT AVBL
MINERAL POINT  LGT RAIN  63  59  88 E5        29.80F
MADISON        CLOUDY    68  57  68 SE10      29.80F
MIDDLETON      CLOUDY    69  57  65 E10       29.82R
WATERTOWN      CLOUDY    68  57  66 E8        29.82F
MONROE         CLOUDY    64  54  68 SE10      29.80S
JANESVILLE     MOSUNNY   70  55  60 SE13      29.80F
$$

WIZ051-052-058>065-066-070>072-261800-
SOUTHEAST WISCONSIN

CITY           SKY/WX    TMP DP  RH WIND       PRES   REMARKS
MILWAUKEE      PTSUNNY   60  54  80 E8        29.86F
WAUKESHA       SUNNY     63  54  72 E13       29.85F
MILWAUKEE/TIMM PTSUNNY   64  48  55 E8        29.86F
RACINE         PTSUNNY   59  51  75 E9        29.86F
KENOSHA        PTSUNNY   62  53  72 E10       29.84F
FOND DU LAC    MOSUNNY   68  54  60 SE12      29.83F
SHEBOYGAN      CLOUDY    61  55  81 S6        29.86F
WEST BEND      CLOUDY    64  55  72 SE8       29.85F
JUNEAU         CLOUDY    67  57  69 E9        29.84F
$$

LSZ147-162-261800-
LAKE SUPERIOR

STATION/POSITION TIME  TEMP    WIND        PRES    WAVE
                       AIR SEA DIR/SP/G            HT/PER
                 (UTC) (F)     (DEG/KT/KT) (MB)    (FT/S)
W MID LAKE BUOY  1550   43 37  150/  2/  4 1009.2R   1
DEVILS ISLAND    1600   46      90/  9/  9 1008.1R
PORT WING        1640   43      10/  6/  7 1007.8S
SAXON HARBOR     1640   50     340/  1/  2 1007.8S
$$

LMZ867-665-643>646-261800-
LAKE MICHIGAN

STATION/POSITION TIME  TEMP    WIND        PRES    WAVE
                       AIR SEA DIR/SP/G            HT/PER
                 (UTC) (F)     (DEG/KT/KT) (MB)    (FT/S)
CHAMBERS ISLAND  1640   60     350/  4/  6 1010.5S
N MID LAKE BUOY  1550   46 44  220/  4/  4 1012.0R   0
NORTHPORT PIER   1640   51     110/  6/  7 1010.8F
KEWAUNEE LAKESHO 1630   48     170/  8/  8 1011.1R
SHEBOYGAN LAKESH 1600   48     160/  4/  4 1011.7R
PORT WASHINGTON  1630   49     110/  2/  4 1012.5S
ATWATER BUOY     1509   47      80/  2/  4 1011.8F
MILWAUKEE LAKESH 1630   48      90/  3/  3   N/A
S MID LAKE BUOY  1550   47 46  160/  4/  6 1012.2F   1/ 4
KENOSHA   LAKESH 1600   51     140/  3/  4 1011.5
$$

TC  - TEMPERATURE IN CELSIUS
VSB - VISIBILITY IN STATUTE MILES
WCI - WIND CHILL INDEX
HX  - HEAT INDEX





USA.gov is the U.S. government's official web portal to all federal, state and local government web resources and services.